| time (UTC) | temp F | wind direction | speed knots | gust knots | rain 1hr in | rain 24hr in | rain mn in | humidity % | barometer mb |
| 20260505214314 | 51 | 21 | 0.9 | 3.5 | 0.00 | 0.00 | 0.00 | 79 | 1013.7 |
| 20260505212814 | 51 | 5 | 0.0 | 2.6 | 0.00 | 0.00 | 0.00 | 80 | 1013.8 |
| 20260505211314 | 51 | 35 | 0.0 | 0.9 | 0.00 | 0.00 | 0.00 | 79 | 1013.8 |
| 20260505205814 | 51 | 330 | 0.0 | 1.7 | 0.00 | 0.00 | 0.00 | 78 | 1013.8 |
| 20260505204314 | 51 | 355 | 0.0 | 0.9 | 0.00 | 0.00 | 0.00 | 78 | 1013.9 |
| 20260505202814 | 51 | 298 | 0.0 | 0.9 | 0.00 | 0.00 | 0.00 | 78 | 1013.8 |
| 20260505201314 | 51 | 9 | 0.9 | 1.7 | 0.00 | 0.00 | 0.00 | 76 | 1013.8 |
| 20260505195814 | 52 | 14 | 0.9 | 3.5 | 0.00 | 0.00 | 0.00 | 75 | 1013.6 |
| 20260505194314 | 53 | 313 | 0.9 | 3.5 | 0.00 | 0.00 | 0.00 | 73 | 1013.5 |
| 20260505192814 | 53 | 27 | 0.9 | 4.3 | 0.00 | 0.00 | 0.00 | 71 | 1013.3 |
| 20260505191314 | 54 | 50 | 1.7 | 4.3 | 0.00 | 0.00 | 0.00 | 70 | 1013.1 |
| 20260505185814 | 55 | 342 | 1.7 | 3.5 | 0.00 | 0.00 | 0.00 | 69 | 1012.9 |
| 20260505184314 | 55 | 340 | 1.7 | 6.1 | 0.00 | 0.00 | 0.00 | 69 | 1013.0 |
| 20260505182815 | 55 | 63 | 0.9 | 3.5 | 0.00 | 0.00 | 0.00 | 69 | 1012.9 |
| 20260505181315 | 56 | 280 | 1.7 | 6.1 | 0.00 | 0.00 | 0.00 | 66 | 1013.0 |
| 20260505175815 | 56 | 319 | 1.7 | 3.5 | 0.00 | 0.00 | 0.00 | 66 | 1012.9 |
| 20260505174315 | 57 | 349 | 1.7 | 4.3 | 0.00 | 0.00 | 0.00 | 65 | 1013.1 |
| 20260505172815 | 57 | 23 | 1.7 | 4.3 | 0.00 | 0.00 | 0.00 | 65 | 1013.0 |
| 20260505171315 | 57 | 0 | 1.7 | 6.1 | 0.00 | 0.00 | 0.00 | 64 | 1012.9 |
| 20260505165815 | 58 | 12 | 2.6 | 7.0 | 0.00 | 0.00 | 0.00 | 63 | 1013.2 |
| 20260505164315 | 59 | 44 | 2.6 | 10.4 | 0.00 | 0.00 | 0.00 | 61 | 1013.3 |
| 20260505162815 | 60 | 26 | 3.5 | 10.4 | 0.00 | 0.00 | 0.00 | 62 | 1013.1 |
| 20260505161315 | 61 | 11 | 2.6 | 11.3 | 0.00 | 0.00 | 0.00 | 60 | 1013.1 |
| 20260505152815 | 59 | 0 | 3.5 | 7.8 | 0.00 | 0.00 | 0.00 | 59 | 1013.2 |
| 20260505151315 | 60 | 18 | 2.6 | 4.3 | 0.00 | 0.00 | 0.00 | 61 | 1013.3 |
| 20260505124315 | 59 | 59 | 1.7 | 7.0 | 0.00 | 0.00 | 0.00 | 59 | 1013.5 |
| 20260505122815 | 60 | 293 | 2.6 | 7.0 | 0.00 | 0.00 | 0.00 | 60 | 1013.6 |
| 20260505121315 | 59 | 15 | 1.7 | 7.0 | 0.00 | 0.00 | 0.00 | 60 | 1013.6 |
| 20260505115815 | 60 | 33 | 2.6 | 10.4 | 0.00 | 0.00 | 0.00 | 59 | 1013.7 |
| 20260505114315 | 60 | 24 | 1.7 | 7.8 | 0.00 | 0.00 | 0.00 | 62 | 1013.6 |
| 20260505112815 | 60 | 12 | 2.6 | 5.2 | 0.00 | 0.00 | 0.00 | 64 | 1013.6 |
| 20260505111315 | 60 | 11 | 3.5 | 8.7 | 0.00 | 0.00 | 0.00 | 63 | 1013.9 |
| 20260505101315 | 58 | 319 | 1.7 | 7.8 | 0.00 | 0.00 | 0.00 | 69 | 1014.2 |
| 20260505095815 | 56 | 340 | 3.5 | 9.6 | 0.00 | 0.00 | 0.00 | 70 | 1014.3 |
| 20260505094315 | 56 | 83 | 3.5 | 8.7 | 0.00 | 0.00 | 0.00 | 69 | 1014.2 |
| 20260505092815 | 55 | 41 | 4.3 | 13.0 | 0.00 | 0.00 | 0.00 | 70 | 1014.1 |
| 20260505091315 | 54 | 15 | 3.5 | 7.8 | 0.00 | 0.00 | 0.00 | 73 | 1014.2 |
| 20260505085815 | 53 | 30 | 1.7 | 6.1 | 0.00 | 0.00 | 0.00 | 77 | 1014.4 |
| 20260505084315 | 52 | 138 | 1.7 | 7.0 | 0.00 | 0.00 | 0.00 | 77 | 1014.7 |
| 20260505082815 | 51 | 5 | 2.6 | 4.3 | 0.00 | 0.00 | 0.00 | 82 | 1014.6 |
| 20260505081315 | 50 | 17 | 1.7 | 4.3 | 0.00 | 0.00 | 0.00 | 83 | 1014.6 |
| 20260505075815 | 49 | 33 | 2.6 | 8.7 | 0.00 | 0.00 | 0.00 | 84 | 1014.6 |
| 20260505074315 | 49 | 5 | 1.7 | 5.2 | 0.00 | 0.00 | 0.00 | 87 | 1014.5 |
| 20260505072815 | 48 | 43 | 1.7 | 4.3 | 0.00 | 0.01 | 0.00 | 88 | 1014.6 |
| 20260505071315 | 48 | 32 | 2.6 | 7.8 | 0.00 | 0.01 | 0.00 | 89 | 1014.6 |
| 20260505065815 | 48 | 22 | 2.6 | 10.4 | 0.00 | 0.01 | 0.00 | 91 | 1014.7 |
| 20260505064315 | 47 | 27 | 0.0 | 1.7 | 0.00 | 0.01 | 0.00 | 94 | 1014.7 |
| 20260505062815 | 46 | 42 | 0.0 | 3.5 | 0.00 | 0.01 | 0.00 | 94 | 1014.6 |
| 20260505061315 | 46 | 46 | 0.0 | 0.9 | 0.00 | 0.01 | 0.00 | 94 | 1014.6 |
| 20260505055815 | 46 | 46 | 0.0 | 0.9 | 0.00 | 0.01 | 0.00 | 94 | 1014.7 |
| 20260505054315 | 46 | 315 | 0.0 | 1.7 | 0.00 | 0.01 | 0.00 | 94 | 1014.5 |
| 20260505052815 | 46 | 29 | 0.0 | 0.9 | 0.00 | 0.02 | 0.00 | 94 | 1014.6 |
| 20260505051315 | 46 | 9 | 0.0 | 0.9 | 0.00 | 0.02 | 0.00 | 94 | 1014.7 |
| 20260505041316 | 45 | 24 | 0.0 | 1.7 | 0.00 | 0.02 | 0.00 | 95 | 1014.4 |
| 20260505035816 | 45 | 24 | 0.0 | 0.0 | 0.00 | 0.02 | 0.00 | 94 | 1014.3 |
| 20260505034316 | 45 | 24 | 0.0 | 0.9 | 0.00 | 0.02 | 0.00 | 94 | 1014.0 |
| 20260505032816 | 45 | 24 | 0.0 | 0.9 | 0.00 | 0.02 | 0.00 | 93 | 1014.3 |
| 20260505031316 | 45 | 24 | 0.0 | 0.0 | 0.00 | 0.02 | 0.00 | 93 | 1014.3 |
| 20260505025816 | 45 | 24 | 0.0 | 0.0 | 0.00 | 0.02 | 0.00 | 93 | 1014.5 |
| 20260505024316 | 46 | 24 | 0.0 | 0.9 | 0.00 | 0.02 | 0.00 | 92 | 1014.6 |
| 20260505022816 | 46 | 24 | 0.0 | 0.0 | 0.00 | 0.02 | 0.00 | 92 | 1014.8 |
| 20260505021316 | 47 | 24 | 0.0 | 0.9 | 0.00 | 0.02 | 0.00 | 92 | 1014.8 |
| 20260505015816 | 47 | 24 | 0.0 | 1.7 | 0.00 | 0.02 | 0.00 | 91 | 1014.7 |
| 20260505014316 | 47 | 24 | 0.0 | 0.9 | 0.00 | 0.02 | 0.00 | 90 | 1014.9 |
| 20260505012816 | 48 | 24 | 0.0 | 0.9 | 0.00 | 0.02 | 0.00 | 90 | 1014.8 |
| 20260505011316 | 49 | 24 | 0.0 | 0.9 | 0.00 | 0.02 | 0.00 | 90 | 1014.8 |
| 20260505005816 | 49 | 24 | 0.0 | 0.9 | 0.00 | 0.02 | 0.00 | 90 | 1014.9 |
| 20260505004316 | 50 | 24 | 0.0 | 2.6 | 0.00 | 0.02 | 0.00 | 89 | 1014.9 |
| 20260505002816 | 50 | 24 | 0.0 | 0.0 | 0.00 | 0.02 | 0.00 | 90 | 1014.8 |
| 20260505001316 | 50 | 24 | 1.7 | 3.5 | 0.00 | 0.02 | 0.00 | 90 | 1014.8 |
| 20260504235816 | 51 | 23 | 0.9 | 3.5 | 0.00 | 0.02 | 0.02 | 90 | 1014.9 |
| 20260504234316 | 51 | 19 | 0.0 | 1.7 | 0.00 | 0.02 | 0.02 | 89 | 1015.1 |
| 20260504232816 | 51 | 43 | 0.9 | 2.6 | 0.00 | 0.02 | 0.02 | 89 | 1015.2 |
| 20260504231316 | 51 | 116 | 0.9 | 2.6 | 0.00 | 0.02 | 0.02 | 89 | 1015.0 |
| 20260504225816 | 52 | 19 | 0.9 | 3.5 | 0.00 | 0.02 | 0.02 | 89 | 1015.2 |
| 20260504224316 | 52 | 25 | 0.9 | 2.6 | 0.00 | 0.02 | 0.02 | 90 | 1015.3 |
| 20260504222816 | 52 | 28 | 0.9 | 1.7 | 0.00 | 0.02 | 0.02 | 90 | 1015.4 |
| 20260504221316 | 53 | 28 | 0.0 | 0.0 | 0.00 | 0.02 | 0.02 | 90 | 1015.4 |
| 20260504215816 | 53 | 28 | 0.9 | 3.5 | 0.00 | 0.02 | 0.02 | 89 | 1015.2 |